User: anonymous   Login
Location: *
(17.3280°S, 114.7300°W)
Time: 04:08:39
(UTC+00:00)
Language:

Cosmos 1603 - Orbit

View from above orbital plane
View from above orbital plane
View from above satellite
View from above satellite

Ground track
Ground track

The orbit data is extracted from the following two-line orbital elements,

1 15333U 84106A   20304.55063464 -.00000169  00000-0 -63915-4 0  9992
2 15333  71.0296  33.8027 0017562 137.7032 222.5448 14.14109880862334
Epoch (UTC): 30 October 2020 13:12:54
Eccentricity: 0.0017562
inclination: 71.0296°
perigee height: 832 km
apogee height: 858 km
right ascension of ascending node: 33.8027°
argument of perigee: 137.7032°
revolutions per day: 14.14109880
mean anomaly at epoch: 222.5448°
orbit number at epoch: 86233

The dashed part of the orbit path shows where the satellite is in the earth's shadow,  

DLR